Flag Weather past 2 weeks in Lakeland, Florida, U.S.A.

Now
57 °F

Passing clouds.


Feels Like: 56 °F
Forecast: 41 / 67 °F
Wind: 6 mph from Northeast

Location: Lakeland Regional

Current Time: Nov 20, 2014 at 6:59:32 PM

Latest Report: Nov 20, 2014 at 5:50 PM


Visibility: 15 mi

Pressure: 30.20 "Hg

Humidity: 55%

Dew point: 41 °F

Location of LakelandLocation

Historic Weather in Lakeland — Graph

°F

Lakeland temperature yesterday

Maximum temperature yesterday: 61 °F (at 2:51 PM)
Minimum temperature yesterday: 37 °F (at 2:35 AM)
Average temperature yesterday: 45 °F

Past Weeks' High & Low Weather Summary

 TemperatureHumidityPressure
High82 °F (Nov 6, 12:51 PM)100% (Nov 7, 1:55 AM)30.39 "Hg (Nov 7, 1:55 AM)
Low37 °F (Nov 19, 2:35 AM)32% (Nov 12, 3:50 PM)29.87 "Hg (Nov 9, 2:35 AM)
Average60 °F81%30.06 "Hg
* Reported Nov 5 5:50 PM — Nov 20 5:50 PM, Lakeland, Weather by CustomWeather, © 2014

Note: Actual official high and low records may vary slightly from our data, if they occured in-between our weather recording intervals... More about our weather records

Advertising

Lakeland weather history for previous 24 hours

 ConditionsComfort  
Time TempWeatherWind HumidityBarometerVisibility
5:50 PM
Nov 20
57 °FPassing clouds.6 mph55%30.20 "Hg15 mi
4:52 PM61 °FPartly sunny.7 mph45%30.20 "Hg15 mi
3:50 PM64 °FPartly sunny.12 mph37%30.19 "Hg15 mi
2:50 PM64 °FPartly sunny.13 mph40%30.19 "Hg15 mi
1:54 PM64 °FPartly sunny.9 mph40%30.20 "Hg15 mi
12:54 PM63 °FPartly sunny.9 mph42%30.23 "Hg15 mi
11:50 AM63 °FPartly sunny.12 mph39%30.26 "Hg10 mi
10:50 AM57 °FPartly sunny.9 mph44%30.29 "Hg10 mi
9:50 AM55 °FSunny.9 mph47%30.30 "Hg10 mi
8:50 AM52 °FSunny.7 mph50%30.29 "Hg10 mi
7:50 AM45 °FPartly sunny.7 mph76%30.28 "Hg10 mi
6:50 AM43 °FClear.5 mph81%30.27 "Hg10 mi
5:50 AM43 °FClear.5 mph81%30.26 "Hg10 mi
4:35 AM43 °FClear.3 mph81%30.26 "Hg10 mi
4:15 AM43 °FClear.5 mph81%30.25 "Hg10 mi
3:15 AM43 °FClear.3 mph81%30.26 "Hg10 mi
2:55 AM43 °FClear.3 mph81%30.26 "Hg10 mi
2:35 AM45 °FClear.6 mph76%30.27 "Hg10 mi
2:15 AM45 °FClear.7 mph76%30.28 "Hg10 mi
1:55 AM45 °FClear.7 mph87%30.28 "Hg10 mi
1:35 AM45 °FClear.6 mph87%30.28 "Hg10 mi
1:15 AM45 °FClear.6 mph87%30.29 "Hg10 mi
12:55 AM45 °FClear.7 mph93%30.29 "Hg10 mi
12:35 AM45 °FClear.5 mph93%30.28 "Hg10 mi
12:15 AM45 °FClear.6 mph93%30.29 "Hg10 mi
11:55 PM
Nov 19
45 °FClear.6 mph93%30.29 "Hg10 mi
11:15 PM45 °FClear.8 mph93%30.29 "Hg10 mi
10:55 PM45 °FClear.6 mph93%30.30 "Hg10 mi
10:15 PM46 °FClear.7 mph87%30.30 "Hg10 mi
9:55 PM46 °FClear.7 mph87%30.30 "Hg10 mi
9:15 PM46 °FClear.8 mph87%30.30 "Hg10 mi
8:50 PM48 °FClear.8 mph87%30.30 "Hg10 mi
7:50 PM50 °FClear.7 mph82%30.29 "Hg10 mi
Weather by CustomWeather, © 2014

See weather overviewHow to use our weather pages